sat.trackr.live / text

‹ back to catalog

ICEYE-X42

NORAD 62698 · 2025-009CT

PAYLOAD ACTIVE UNKNOWN

§ Identity

Operator
Country
UAE
Launch date
2025-01-14
Launch site
AFWTR
Launch vehicle
Mass (kg)
RCS (m²)

External: N2YO · Heavens-Above · Gunter

§ Orbital elements

Epoch: 2026-09-22T17:34:18.658560Z

Period
96.53 min
Inclination
97.7409°
Eccentricity
0.0001321
Mean motion
14.91840780 rev/d
Perigee alt
591.3 km
Apogee alt
593.1 km
Semi-major
6,970.3 km
B*
1.0902e-4
RAAN
342.2733°
Arg perigee
103.4604°
Mean anomaly
256.6762°
Rev number
9,183

§ Raw data

ICEYE-X421 62698U 25009CT  26265.73216040  .00001045  00000+0  10902-3 0  99952 62698  97.7409 342.2733 0001321 103.4604 256.6762 14.91840780 91835

JSON: /api/v1/satellites/62698 · /tle

For live sub-satellite position, see the globe view (requires WebGL).

§ Visibility from observer

Set your observer location to see the next 7 days of passes ≥ 10°. The values pass through the URL so the page stays shareable.

No JS? Fill the form by hand. The geolocation button needs JavaScript.

§ Radio — SatNOGS DB

ModeDescriptionDownlinkUplink
BPSK S-band telemetry 2.276 GHz

1 transmitter · refreshed weekly from db.satnogs.org